This is the latest recevied weather packets stored in our database for station/object VR2OT-10. If no packets are shown the sender has not sent any weather packets the latest 10 day(s).
| Time | Temp. | Humidity | Pressure | Rain* | Wind** | Luminosity | Snow |
|---|---|---|---|---|---|---|---|
| 1778123837 | 26.11° C | 75% | 1013 hPa | - | 4.02 m/s, 135° | - | - |
| 1778122938 | 25.56° C | 77% | 1013.2 hPa | - | 3.58 m/s, 135° | - | - |
| 1778122038 | 25.56° C | 76% | 1013.2 hPa | - | 4.02 m/s, 135° | - | - |
| 1778121138 | 25.56° C | 77% | 1013.3 hPa | - | 2.68 m/s, 90° | - | - |
| 1778120238 | 25° C | 79% | 1013.3 hPa | - | 3.58 m/s, 90° | - | - |
| 1778119338 | 25° C | 82% | 1013.3 hPa | - | 3.58 m/s, 90° | - | - |
| 1778117538 | 25° C | 83% | 1013.3 hPa | - | 2.68 m/s, 90° | - | - |
| 1778116637 | 25° C | 82% | 1013.2 hPa | - | 3.58 m/s, 90° | - | - |
| 1778114837 | 24.44° C | 84% | 1013.2 hPa | - | 3.13 m/s, 90° | - | - |
| 1778113938 | 23.89° C | 86% | 1013.3 hPa | - | 3.13 m/s, 90° | - | - |
| 1778111238 | 23.89° C | 87% | 1013.1 hPa | - | 3.58 m/s, 90° | - | - |
| 1778110338 | 23.89° C | 87% | 1013 hPa | - | 3.13 m/s, 90° | - | - |
| 1778108539 | 23.89° C | 87% | 1012.8 hPa | - | 2.68 m/s, 90° | - | - |
| 1778107638 | 23.33° C | 87% | 1012.7 hPa | - | 3.13 m/s, 90° | - | - |
| 1778106739 | 23.33° C | 87% | 1012.6 hPa | - | 2.68 m/s, 90° | - | - |
| 1778105838 | 23.33° C | 87% | 1012.5 hPa | - | 2.68 m/s, 135° | - | - |
| 1778104937 | 23.33° C | 87% | 1012.3 hPa | - | 2.68 m/s, 90° | - | - |
| 1778103138 | 23.33° C | 87% | 1011.8 hPa | - | 2.68 m/s, 90° | - | - |
| 1778102237 | 23.33° C | 87% | 1011.8 hPa | - | 2.68 m/s, 90° | - | - |
| 1778101338 | 23.33° C | 87% | 1011.7 hPa | - | 1.79 m/s, 90° | - | - |
| 1778099537 | 23.33° C | 87% | 1011.7 hPa | - | 1.79 m/s, 90° | - | - |
| 1778098638 | 23.33° C | 87% | 1011.7 hPa | - | 1.79 m/s, 135° | - | - |
| 1778096838 | 23.33° C | 87% | 1011.6 hPa | - | 2.24 m/s, 135° | - | - |
| 1778095939 | 23.33° C | 87% | 1011.8 hPa | - | 1.79 m/s, 135° | - | - |
| 1778095038 | 23.33° C | 87% | 1011.8 hPa | - | 1.79 m/s, 135° | - | - |
* Rain since midnight (hover to see other rain measurements)
** Current wind speed in m/s (hover to see current wind gust speed)